| time (UTC) | temp C | wind direction | speed KPH | gust KPH | rain 1hr cm | rain 24hr cm | rain mn cm | humidity % | barometer mb |
| 20260905191120 | 18 | 243 | 4.8 | 12.9 | 0.00 | 0.56 | 0.56 | 85 | 1023.9 |
| 20260905185042 | 19 | 187 | 4.8 | 12.9 | 0.00 | 0.56 | 0.56 | 85 | 1023.7 |
| 20260905184101 | 19 | 235 | 8.0 | 17.7 | 0.00 | 0.56 | 0.56 | 85 | 1023.6 |
| 20260905183042 | 19 | 219 | 8.0 | 16.1 | 0.00 | 0.56 | 0.56 | 86 | 1023.5 |
| 20260905182102 | 18 | 198 | 4.8 | 12.9 | 0.00 | 0.56 | 0.56 | 88 | 1023.3 |
| 20260905181043 | 18 | 185 | 4.8 | 11.3 | 0.00 | 0.56 | 0.56 | 89 | 1023.2 |
| 20260905180044 | 18 | 206 | 3.2 | 9.7 | 0.00 | 0.56 | 0.56 | 88 | 1023.1 |
| 20260905175044 | 19 | 216 | 3.2 | 11.3 | 0.00 | 0.56 | 0.56 | 87 | 1023.2 |
| 20260905174104 | 19 | 185 | 3.2 | 8.0 | 0.00 | 0.56 | 0.56 | 87 | 1023.1 |
| 20260905173045 | 19 | 202 | 3.2 | 8.0 | 0.00 | 0.56 | 0.56 | 86 | 1022.9 |
| 20260905172045 | 20 | 213 | 4.8 | 9.7 | 0.00 | 0.56 | 0.56 | 85 | 1022.9 |
| 20260905171114 | 20 | 206 | 3.2 | 9.7 | 0.00 | 0.56 | 0.56 | 83 | 1022.9 |
| 20260905170046 | 20 | 224 | 4.8 | 11.3 | 0.00 | 0.56 | 0.56 | 83 | 1022.9 |
| 20260905165046 | 20 | 191 | 4.8 | 12.9 | 0.00 | 0.56 | 0.56 | 82 | 1022.9 |
| 20260905164107 | 21 | 212 | 4.8 | 11.3 | 0.00 | 0.56 | 0.56 | 81 | 1022.9 |
| 20260905163047 | 21 | 210 | 3.2 | 11.3 | 0.00 | 0.56 | 0.56 | 79 | 1022.7 |
| 20260905162048 | 21 | 213 | 3.2 | 14.5 | 0.00 | 0.56 | 0.56 | 79 | 1022.8 |
| 20260905161048 | 21 | 228 | 8.0 | 17.7 | 0.00 | 0.56 | 0.56 | 79 | 1022.8 |
| 20260905160108 | 21 | 244 | 6.4 | 14.5 | 0.00 | 0.56 | 0.56 | 79 | 1022.8 |
| 20260905155049 | 21 | 278 | 4.8 | 12.9 | 0.00 | 0.56 | 0.56 | 78 | 1022.7 |
| 20260905154109 | 21 | 262 | 8.0 | 16.1 | 0.00 | 0.56 | 0.56 | 78 | 1022.8 |
| 20260905153104 | 21 | 259 | 6.4 | 14.5 | 0.00 | 0.56 | 0.56 | 78 | 1022.8 |
| 20260905152051 | 20 | 235 | 9.7 | 22.5 | 0.00 | 0.56 | 0.56 | 79 | 1022.9 |
| 20260905151050 | 21 | 216 | 6.4 | 14.5 | 0.00 | 0.56 | 0.56 | 76 | 1022.8 |
| 20260905150059 | 21 | 240 | 8.0 | 20.9 | 0.00 | 0.58 | 0.56 | 75 | 1022.9 |
| 20260905145051 | 20 | 242 | 9.7 | 22.5 | 0.00 | 0.58 | 0.56 | 75 | 1022.9 |
| 20260905144052 | 20 | 224 | 6.4 | 16.1 | 0.00 | 0.58 | 0.56 | 76 | 1022.9 |
| 20260905143052 | 20 | 251 | 8.0 | 17.7 | 0.00 | 0.58 | 0.56 | 77 | 1022.9 |
| 20260905142053 | 20 | 236 | 8.0 | 14.5 | 0.00 | 0.58 | 0.56 | 78 | 1022.9 |
| 20260905140553 | 19 | 226 | 8.0 | 17.7 | 0.00 | 0.58 | 0.56 | 80 | 1023.2 |
| 20260905135554 | 20 | 239 | 8.0 | 16.1 | 0.00 | 0.58 | 0.56 | 81 | 1023.2 |
| 20260905134554 | 19 | 208 | 8.0 | 20.9 | 0.00 | 0.58 | 0.56 | 82 | 1023.3 |
| 20260905133555 | 18 | 241 | 6.4 | 16.1 | 0.00 | 0.58 | 0.56 | 83 | 1023.4 |
| 20260905132615 | 18 | 265 | 6.4 | 12.9 | 0.00 | 0.58 | 0.56 | 87 | 1023.4 |
| 20260905131555 | 17 | 219 | 6.4 | 17.7 | 0.00 | 0.58 | 0.56 | 89 | 1023.3 |
| 20260905130555 | 17 | 247 | 4.8 | 16.1 | 0.00 | 0.58 | 0.56 | 91 | 1023.3 |
| 20260905125556 | 17 | 251 | 6.4 | 20.9 | 0.00 | 0.58 | 0.56 | 92 | 1023.4 |
| 20260905124557 | 17 | 226 | 9.7 | 17.7 | 0.00 | 0.58 | 0.56 | 92 | 1023.4 |
| 20260905123557 | 17 | 224 | 6.4 | 12.9 | 0.00 | 0.58 | 0.56 | 94 | 1023.3 |
| 20260905122557 | 17 | 222 | 4.8 | 9.7 | 0.00 | 0.58 | 0.56 | 96 | 1023.2 |
| 20260905121558 | 17 | 173 | 4.8 | 9.7 | 0.00 | 0.58 | 0.56 | 95 | 1023.0 |
| 20260905120558 | 16 | 226 | 4.8 | 9.7 | 0.00 | 0.58 | 0.56 | 94 | 1023.1 |
| 20260905115618 | 16 | 238 | 4.8 | 12.9 | 0.00 | 0.58 | 0.56 | 93 | 1023.3 |
| 20260905114719 | 16 | 156 | 1.6 | 8.0 | 0.00 | 0.58 | 0.56 | 95 | 1023.1 |
| 20260905113600 | 16 | 207 | 4.8 | 11.3 | 0.03 | 0.58 | 0.56 | 96 | 1023.0 |
| 20260905112620 | 16 | 198 | 3.2 | 9.7 | 0.03 | 0.58 | 0.56 | 96 | 1023.1 |
| 20260905111620 | 16 | 171 | 3.2 | 11.3 | 0.03 | 0.58 | 0.56 | 97 | 1023.1 |
| 20260905110615 | 16 | 210 | 3.2 | 8.0 | 0.03 | 0.58 | 0.56 | 96 | 1023.2 |
| 20260905105601 | 15 | 193 | 4.8 | 11.3 | 0.03 | 0.58 | 0.56 | 95 | 1022.9 |
| 20260905104602 | 15 | 144 | 3.2 | 8.0 | 0.05 | 0.58 | 0.56 | 97 | 1023.1 |
| 20260905103604 | 15 | 261 | 3.2 | 8.0 | 0.13 | 0.56 | 0.53 | 98 | 1023.1 |
| 20260905102606 | 15 | 183 | 3.2 | 9.7 | 0.18 | 0.56 | 0.53 | 98 | 1023.1 |
| 20260905101603 | 15 | 142 | 1.6 | 4.8 | 0.30 | 0.56 | 0.53 | 99 | 1023.0 |
| 20260905100604 | 14 | 159 | 1.6 | 8.0 | 0.38 | 0.56 | 0.53 | 99 | 1023.0 |
| 20260905095625 | 15 | 147 | 1.6 | 4.8 | 0.38 | 0.56 | 0.53 | 99 | 1023.1 |
| 20260905094624 | 14 | 144 | 1.6 | 4.8 | 0.36 | 0.53 | 0.51 | 99 | 1023.1 |
| 20260905093605 | 15 | 177 | 4.8 | 11.3 | 0.25 | 0.43 | 0.41 | 99 | 1023.2 |
| 20260905092607 | 15 | 170 | 3.2 | 9.7 | 0.20 | 0.38 | 0.36 | 98 | 1023.0 |
| 20260905091618 | 15 | 180 | 1.6 | 8.0 | 0.08 | 0.25 | 0.23 | 94 | 1022.8 |
| 20260905090606 | 15 | 183 | 4.8 | 8.0 | 0.00 | 0.18 | 0.15 | 93 | 1022.9 |
| 20260905085607 | 16 | 143 | 1.6 | 3.2 | 0.00 | 0.18 | 0.15 | 92 | 1022.9 |
| 20260905084607 | 16 | 161 | 6.4 | 9.7 | 0.00 | 0.18 | 0.15 | 91 | 1022.6 |
| 20260905083647 | 15 | 167 | 4.8 | 11.3 | 0.00 | 0.18 | 0.15 | 91 | 1022.7 |
| 20260905082608 | 15 | 168 | 1.6 | 4.8 | 0.00 | 0.18 | 0.15 | 95 | 1022.7 |
| 20260905081648 | 15 | 93 | 0.0 | 3.2 | 0.00 | 0.18 | 0.15 | 94 | 1022.6 |
| 20260905080608 | 15 | 117 | 3.2 | 4.8 | 0.00 | 0.18 | 0.15 | 94 | 1022.6 |
| 20260905075609 | 15 | 125 | 1.6 | 3.2 | 0.00 | 0.18 | 0.15 | 95 | 1022.5 |
| 20260905074537 | 15 | 111 | 3.2 | 4.8 | 0.00 | 0.18 | 0.15 | 94 | 1022.4 |
| 20260905073558 | 15 | 153 | 4.8 | 8.0 | 0.00 | 0.18 | 0.15 | 94 | 1022.2 |
| 20260905072559 | 14 | 142 | 3.2 | 8.0 | 0.03 | 0.18 | 0.15 | 94 | 1022.3 |
| 20260905071539 | 14 | 105 | 0.0 | 3.2 | 0.03 | 0.18 | 0.15 | 97 | 1022.2 |
| 20260905070539 | 14 | 139 | 0.0 | 4.8 | 0.03 | 0.18 | 0.15 | 98 | 1022.2 |
| 20260905065540 | 13 | 173 | 4.8 | 9.7 | 0.08 | 0.18 | 0.15 | 98 | 1022.0 |
| 20260905064600 | 13 | 164 | 6.4 | 11.3 | 0.08 | 0.18 | 0.15 | 98 | 1021.7 |
| 20260905063541 | 13 | 170 | 11.3 | 16.1 | 0.08 | 0.18 | 0.15 | 98 | 1021.7 |
| 20260905062542 | 14 | 178 | 8.0 | 12.9 | 0.05 | 0.15 | 0.13 | 96 | 1022.2 |
| 20260905061542 | 14 | 173 | 4.8 | 11.3 | 0.05 | 0.15 | 0.13 | 96 | 1022.1 |
| 20260905060543 | 14 | 152 | 4.8 | 9.7 | 0.08 | 0.15 | 0.13 | 95 | 1022.0 |
| 20260905055542 | 14 | 152 | 3.2 | 8.0 | 0.05 | 0.10 | 0.08 | 95 | 1022.1 |
| 20260905054543 | 14 | 137 | 3.2 | 8.0 | 0.08 | 0.10 | 0.08 | 95 | 1022.1 |
| 20260905053544 | 14 | 157 | 4.8 | 9.7 | 0.08 | 0.10 | 0.08 | 95 | 1022.1 |
| 20260905052543 | 14 | 83 | 0.0 | 3.2 | 0.08 | 0.10 | 0.08 | 95 | 1021.8 |
| 20260905051604 | 14 | 52 | 3.2 | 12.9 | 0.08 | 0.10 | 0.08 | 93 | 1021.6 |
| 20260905050544 | 15 | 42 | 6.4 | 16.1 | 0.05 | 0.08 | 0.05 | 88 | 1021.8 |
| 20260905045605 | 17 | 10 | 12.9 | 32.2 | 0.03 | 0.05 | 0.03 | 75 | 1021.1 |
| 20260905044545 | 17 | 29 | 6.4 | 14.5 | 0.00 | 0.03 | 0.00 | 68 | 1020.4 |
| 20260905043545 | 18 | 44 | 8.0 | 14.5 | 0.00 | 0.03 | 0.00 | 68 | 1020.4 |
| 20260905042546 | 18 | 22 | 4.8 | 14.5 | 0.00 | 0.03 | 0.00 | 70 | 1020.1 |
| 20260905041546 | 18 | 32 | 3.2 | 12.9 | 0.00 | 0.03 | 0.00 | 74 | 1019.7 |
| 20260905040547 | 18 | 26 | 4.8 | 12.9 | 0.00 | 0.03 | 0.00 | 76 | 1019.3 |
| 20260905035547 | 18 | 27 | 9.7 | 16.1 | 0.00 | 0.03 | 0.00 | 76 | 1018.9 |
| 20260905034548 | 19 | 29 | 11.3 | 24.1 | 0.00 | 0.03 | 0.00 | 76 | 1018.5 |
| 20260905033548 | 19 | 31 | 11.3 | 29.0 | 0.00 | 0.03 | 0.00 | 76 | 1018.5 |
| 20260905032548 | 20 | 16 | 11.3 | 24.1 | 0.00 | 0.03 | 0.00 | 73 | 1018.0 |
| 20260905031548 | 21 | 48 | 3.2 | 8.0 | 0.00 | 0.03 | 0.00 | 73 | 1017.7 |
| 20260905030549 | 21 | 93 | 1.6 | 3.2 | 0.00 | 0.03 | 0.00 | 74 | 1017.5 |
| 20260905025550 | 21 | 129 | 0.0 | 1.6 | 0.00 | 0.03 | 0.00 | 74 | 1017.6 |
| 20260905024550 | 21 | 144 | 1.6 | 3.2 | 0.00 | 0.03 | 0.00 | 74 | 1017.5 |
| 20260905023610 | 21 | 189 | 3.2 | 4.8 | 0.00 | 0.03 | 0.00 | 69 | 1017.4 |
| 20260905022551 | 21 | 109 | 0.0 | 1.6 | 0.00 | 0.03 | 0.00 | 68 | 1017.1 |
| 20260905021611 | 22 | 308 | 1.6 | 8.0 | 0.00 | 0.03 | 0.00 | 66 | 1017.2 |
| 20260905020552 | 22 | 211 | 3.2 | 8.0 | 0.00 | 0.03 | 0.00 | 65 | 1017.1 |
| 20260905015552 | 21 | 315 | 3.2 | 11.3 | 0.00 | 0.03 | 0.00 | 67 | 1017.0 |
| 20260905014553 | 21 | 347 | 4.8 | 9.7 | 0.00 | 0.03 | 0.00 | 67 | 1016.9 |
| 20260905013553 | 22 | 74 | 1.6 | 4.8 | 0.00 | 0.03 | 0.00 | 65 | 1016.9 |
| 20260905012553 | 22 | 64 | 1.6 | 4.8 | 0.00 | 0.03 | 0.00 | 64 | 1017.0 |
| 20260905011554 | 22 | 58 | 4.8 | 9.7 | 0.00 | 0.03 | 0.00 | 62 | 1017.1 |
| 20260905010554 | 23 | 289 | 6.4 | 14.5 | 0.00 | 0.03 | 0.00 | 60 | 1016.9 |
| 20260905005555 | 23 | 14 | 6.4 | 16.1 | 0.00 | 0.03 | 0.00 | 59 | 1016.9 |
| 20260905004555 | 23 | 208 | 4.8 | 11.3 | 0.00 | 0.03 | 0.00 | 58 | 1016.7 |
| 20260905003555 | 23 | 244 | 3.2 | 14.5 | 0.00 | 0.03 | 0.00 | 58 | 1016.7 |
| 20260905002557 | 23 | 241 | 6.4 | 12.9 | 0.00 | 0.03 | 0.00 | 58 | 1016.6 |
| 20260905001556 | 24 | 215 | 6.4 | 12.9 | 0.00 | 0.03 | 0.00 | 57 | 1016.5 |
| 20260905000557 | 24 | 256 | 6.4 | 14.5 | 0.00 | 0.03 | 0.00 | 57 | 1016.4 |
| 20260904235557 | 24 | 249 | 8.0 | 16.1 | 0.00 | 0.03 | 0.00 | 56 | 1016.4 |
| 20260904234558 | 24 | 244 | 6.4 | 14.5 | 0.00 | 0.03 | 0.00 | 56 | 1016.5 |
| 20260904233558 | 24 | 260 | 4.8 | 16.1 | 0.00 | 0.03 | 0.00 | 55 | 1016.5 |
| 20260904232558 | 25 | 234 | 6.4 | 14.5 | 0.00 | 0.03 | 0.00 | 54 | 1016.4 |
| 20260904231559 | 25 | 232 | 4.8 | 12.9 | 0.00 | 0.03 | 0.00 | 54 | 1016.4 |
| 20260904230600 | 25 | 224 | 6.4 | 14.5 | 0.00 | 0.03 | 0.00 | 53 | 1016.3 |
| 20260904225600 | 25 | 250 | 8.0 | 20.9 | 0.00 | 0.03 | 0.00 | 52 | 1016.3 |
| 20260904224640 | 25 | 264 | 6.4 | 17.7 | 0.00 | 0.03 | 0.00 | 52 | 1016.3 |
| 20260904223601 | 25 | 223 | 6.4 | 14.5 | 0.00 | 0.03 | 0.00 | 52 | 1016.3 |
| 20260904222601 | 25 | 232 | 8.0 | 14.5 | 0.00 | 0.03 | 0.00 | 51 | 1016.0 |
| 20260904221601 | 25 | 259 | 6.4 | 16.1 | 0.00 | 0.03 | 0.00 | 50 | 1016.1 |
| 20260904220602 | 25 | 220 | 4.8 | 14.5 | 0.00 | 0.03 | 0.00 | 50 | 1016.1 |
| 20260904215622 | 25 | 259 | 4.8 | 12.9 | 0.00 | 0.03 | 0.03 | 50 | 1016.0 |
| 20260904214603 | 25 | 259 | 6.4 | 12.9 | 0.00 | 0.03 | 0.03 | 49 | 1015.9 |
| 20260904213603 | 25 | 235 | 4.8 | 12.9 | 0.00 | 0.03 | 0.03 | 50 | 1016.0 |
| 20260904212603 | 25 | 249 | 6.4 | 12.9 | 0.00 | 0.03 | 0.03 | 49 | 1015.8 |
| 20260904211604 | 25 | 280 | 6.4 | 14.5 | 0.00 | 0.03 | 0.03 | 49 | 1015.9 |
| 20260904210604 | 25 | 266 | 4.8 | 14.5 | 0.00 | 0.03 | 0.03 | 49 | 1015.7 |
| 20260904205604 | 25 | 251 | 8.0 | 20.9 | 0.00 | 0.03 | 0.03 | 48 | 1015.6 |
| 20260904204605 | 25 | 238 | 6.4 | 16.1 | 0.00 | 0.03 | 0.03 | 48 | 1015.6 |
| 20260904203538 | 25 | 252 | 6.4 | 16.1 | 0.00 | 0.03 | 0.03 | 48 | 1015.7 |
| 20260904202538 | 25 | 265 | 9.7 | 17.7 | 0.00 | 0.03 | 0.03 | 48 | 1015.6 |
| 20260904201538 | 25 | 257 | 9.7 | 20.9 | 0.00 | 0.03 | 0.03 | 47 | 1015.6 |
| 20260904200539 | 25 | 251 | 6.4 | 14.5 | 0.00 | 0.03 | 0.03 | 48 | 1015.5 |
| 20260904195539 | 25 | 244 | 4.8 | 12.9 | 0.00 | 0.03 | 0.03 | 48 | 1015.5 |
| 20260904194540 | 25 | 203 | 4.8 | 12.9 | 0.00 | 0.03 | 0.03 | 48 | 1015.5 |
| 20260904193541 | 25 | 247 | 4.8 | 12.9 | 0.00 | 0.03 | 0.03 | 48 | 1015.5 |
| 20260904192621 | 25 | 250 | 6.4 | 11.3 | 0.00 | 0.03 | 0.03 | 48 | 1015.5 |
| 20260904191541 | 25 | 230 | 3.2 | 9.7 | 0.00 | 0.03 | 0.03 | 48 | 1015.4 |